Terminal Aerodrome Forecast
Issued by NWS Melbourne, FL

Home | Current Version | Previous Version | Text Only | Print | Product List | Glossary On
Versions: 1 2 3 4 5 6 7 8 9 10 11 12 13 14 15 16 17 18 19 20 21 22 23
491
FTUS42 KMLB 100533
TAFMCO
TAF
KMCO 100533Z 1006/1106 30010KT P6SM FEW050 SCT250
     FM101400 29016G24KT P6SM SKC
     FM110100 31006KT P6SM SKC=

USA.gov is the U.S. government's official web portal to all federal, state and local government web resources and services.